timestamp,surface_pressure_avg,surface_temp_avg,battery_voltage,lat,long
2022-09-27 00:09:00+00:00,366.5113,14.86,11.37,47.84626,-54.09684
2022-09-27 00:19:00+00:00,375.043,14.88,11.37,47.84626,-54.09684
2022-09-27 00:29:00+00:00,373.3279,14.9,11.37,47.84626,-54.09684
2022-09-27 00:39:00+00:00,369.7563,14.9,11.37,47.84626,-54.09684
2022-09-27 00:49:00+00:00,371.2996,14.9,11.37,47.84626,-54.09684
2022-09-27 00:59:00+00:00,368.5745,14.8,11.37,47.84626,-54.09684
2022-09-27 01:09:00+00:00,357.8763,14.8,11.37,47.84626,-54.09684
2022-09-27 01:19:00+00:00,352.848,14.8,11.37,47.84626,-54.09684
2022-09-27 01:29:00+00:00,354.1563,14.8,11.37,47.84626,-54.09684
2022-09-27 01:39:00+00:00,344.1512,14.8,11.37,47.84626,-54.09684
2022-09-27 01:49:00+00:00,340.3445,14.8,11.37,47.84626,-54.09684
2022-09-27 01:59:00+00:00,341.8180000000001,14.8,11.37,47.84626,-54.09684
2022-09-27 02:09:00+00:00,337.658,14.8,11.37,47.84626,-54.09684
2022-09-27 02:19:00+00:00,325.6913,14.9,11.37,47.84626,-54.09684
2022-09-27 02:29:00+00:00,317.3113,14.9,11.37,47.84626,-54.09684
2022-09-27 02:39:00+00:00,315.6013,14.9,11.37,47.84626,-54.09684
2022-09-27 02:49:00+00:00,307.2081,14.89,11.37,47.84626,-54.09684
2022-09-27 02:59:00+00:00,294.3597,14.88,11.37,47.84626,-54.09684
2022-09-27 03:09:00+00:00,286.2081,14.9,11.37,47.84626,-54.09684
2022-09-27 03:19:00+00:00,284.1797,14.9,11.37,47.84626,-54.09684
2022-09-27 03:29:00+00:00,276.4014,14.83,11.37,47.84626,-54.09684
2022-09-27 03:39:00+00:00,264.3914,14.9,11.37,47.84626,-54.09684
2022-09-27 03:49:00+00:00,258.8748,14.9,11.37,47.84626,-54.09684
2022-09-27 03:59:00+00:00,254.5897,14.9,11.37,47.84626,-54.09684
2022-09-27 04:09:00+00:00,241.3897,14.87,11.37,47.84626,-54.09684
2022-09-27 04:19:00+00:00,229.3331,14.8,11.37,47.84626,-54.09684
2022-09-27 04:29:00+00:00,224.5298,14.8,11.37,47.84626,-54.09684
2022-09-27 04:39:00+00:00,216.6898,14.8,11.37,47.84626,-54.09684
2022-09-27 04:49:00+00:00,204.3564,14.8,11.37,47.84626,-54.09684
2022-09-27 04:59:00+00:00,196.1081,14.8,11.37,47.84626,-54.09684
2022-09-27 05:09:00+00:00,194.8432,14.8,11.37,47.84626,-54.09684
2022-09-27 05:19:00+00:00,190.3931,14.88,11.37,47.84626,-54.09684
2022-09-27 05:29:00+00:00,179.5048,14.9,11.37,47.84626,-54.09684
2022-09-27 05:39:00+00:00,176.7848,14.9,11.37,47.84626,-54.09684
2022-09-27 05:49:00+00:00,181.0015,14.9,11.37,47.84626,-54.09684
2022-09-27 05:59:00+00:00,176.0049,14.9,11.37,47.84626,-54.09684
2022-09-27 06:09:00+00:00,169.3665,14.9,11.37,47.84626,-54.09684
2022-09-27 06:19:00+00:00,172.8164,14.9,11.37,47.84626,-54.09684
2022-09-27 06:29:00+00:00,175.2632,14.9,11.37,47.84626,-54.09684
2022-09-27 06:39:00+00:00,174.2165,14.9,11.37,47.84626,-54.09684
2022-09-27 06:49:00+00:00,176.5915,14.9,11.37,47.84626,-54.09684
2022-09-27 06:59:00+00:00,182.2298,14.9,11.37,47.84626,-54.09684
2022-09-27 07:09:00+00:00,185.4831,14.9,11.37,47.84626,-54.09684
2022-09-27 07:19:00+00:00,188.2964,14.9,11.3,47.84626,-54.09684
2022-09-27 07:29:00+00:00,189.9348,14.9,11.3,47.84626,-54.09684
2022-09-27 07:39:00+00:00,193.5565,14.9,11.3,47.84626,-54.09684
2022-09-27 07:49:00+00:00,203.2131,14.9,11.3,47.84626,-54.09684
2022-09-27 07:59:00+00:00,205.1881,14.91,11.3,47.84626,-54.09684
2022-09-27 08:09:00+00:00,206.1664,14.93,11.3,47.84626,-54.09684
2022-09-27 08:19:00+00:00,214.7565,14.94,11.3,47.84626,-54.09684
2022-09-27 08:29:00+00:00,220.5831,14.94,11.3,47.84626,-54.09684
2022-09-27 08:39:00+00:00,223.1431,14.94,11.3,47.84626,-54.09684
2022-09-27 08:49:00+00:00,226.6431,14.95,11.3,47.84626,-54.09684
2022-09-27 08:59:00+00:00,234.6948,14.96,11.3,47.84626,-54.09684
2022-09-27 09:09:00+00:00,244.5598,14.97,11.3,47.84626,-54.09684
2022-09-27 09:19:00+00:00,252.5414,14.98,11.3,47.84626,-54.09684
2022-09-27 09:29:00+00:00,256.1764,14.99,11.3,47.84626,-54.09684
2022-09-27 09:39:00+00:00,262.9614,14.99,11.3,47.84626,-54.09684
2022-09-27 09:49:00+00:00,271.9914,14.98,11.3,47.84626,-54.09684
2022-09-27 09:59:00+00:00,278.6214,14.9,11.3,47.84626,-54.09684
2022-09-27 10:09:00+00:00,280.8181,14.89,11.3,47.84626,-54.09684
2022-09-27 10:19:00+00:00,287.2897,14.9,11.3,47.84626,-54.09684
2022-09-27 10:29:00+00:00,296.5264,14.9,11.3,47.84626,-54.09684
2022-09-27 10:39:00+00:00,306.0197,14.9,11.3,47.84626,-54.09684
2022-09-27 10:49:00+00:00,311.8797,14.9,11.3,47.84626,-54.09684
2022-09-27 10:59:00+00:00,316.608,14.9,11.3,47.84626,-54.09684
2022-09-27 11:09:00+00:00,325.0079,14.9,11.3,47.84626,-54.09684
2022-09-27 11:19:00+00:00,331.4946,14.9,11.3,47.84626,-54.09684
2022-09-27 11:29:00+00:00,333.968,14.9,11.3,47.84626,-54.09684
2022-09-27 11:39:00+00:00,341.8113,14.9,11.3,47.84626,-54.09684
2022-09-27 11:49:00+00:00,349.3096,14.9,11.3,47.84626,-54.09684
2022-09-27 11:59:00+00:00,354.0446,14.9,11.3,47.84626,-54.09684
2022-09-27 12:09:00+00:00,353.7729,14.9,11.3,47.84626,-54.09684
2022-09-27 12:19:00+00:00,357.153,14.9,11.3,47.84626,-54.09684
2022-09-27 12:29:00+00:00,359.6514,14.9,11.3,47.84626,-54.09684
2022-09-27 12:39:00+00:00,357.408,14.9,11.3,47.84626,-54.09684
2022-09-27 12:49:00+00:00,360.6312,14.9,11.3,47.84626,-54.09684
2022-09-27 12:59:00+00:00,363.1896,14.9,11.3,47.84626,-54.09684
2022-09-27 13:09:00+00:00,354.1996,14.9,11.3,47.84626,-54.09684
2022-09-27 13:19:00+00:00,348.9262,14.9,11.3,47.84626,-54.09684
2022-09-27 13:29:00+00:00,349.80300000000005,14.9,11.3,47.84626,-54.09684
2022-09-27 13:39:00+00:00,348.593,14.9,11.3,47.84626,-54.09684
2022-09-27 13:49:00+00:00,339.7413,14.9,11.3,47.84626,-54.09684
2022-09-27 13:59:00+00:00,334.9813,14.9,11.3,47.84626,-54.09684
2022-09-27 14:09:00+00:00,332.1013,14.9,11.3,47.84626,-54.09684
2022-09-27 14:19:00+00:00,320.6296,14.9,11.3,47.84626,-54.09684
2022-09-27 14:29:00+00:00,314.2897,14.9,11.3,47.84626,-54.09684
2022-09-27 14:39:00+00:00,316.2463,14.9,11.3,47.84626,-54.09684
2022-09-27 14:49:00+00:00,311.2914,14.9,11.3,47.84626,-54.09684
2022-09-27 14:59:00+00:00,300.653,14.9,11.3,47.84626,-54.09684
2022-09-27 15:09:00+00:00,298.793,14.9,11.3,47.84626,-54.09684
2022-09-27 15:19:00+00:00,296.093,14.9,11.3,47.84626,-54.09684
2022-09-27 15:29:00+00:00,283.2297,14.9,11.3,47.84626,-54.09684
2022-09-27 15:39:00+00:00,270.1947,14.93,11.3,47.84626,-54.09684
2022-09-27 15:49:00+00:00,264.613,14.96,11.3,47.84626,-54.09684
2022-09-27 15:59:00+00:00,254.6115,14.98,11.3,47.84626,-54.09684
2022-09-27 16:09:00+00:00,244.1664,14.99,11.3,47.84626,-54.09684
2022-09-27 16:19:00+00:00,235.4498,15.0,11.3,47.84626,-54.09684
2022-09-27 16:29:00+00:00,231.6531,15.0,11.3,47.84626,-54.09684
2022-09-27 16:39:00+00:00,223.8547,15.0,11.3,47.84626,-54.09684
2022-09-27 16:49:00+00:00,212.8014,15.07,11.3,47.84626,-54.09684
2022-09-27 16:59:00+00:00,204.5714,15.09,11.3,47.84626,-54.09684
2022-09-27 17:09:00+00:00,199.8331,15.1,11.3,47.84626,-54.09684
2022-09-27 17:19:00+00:00,195.4181,15.1,11.3,47.84626,-54.09684
2022-09-27 17:29:00+00:00,189.7115,15.1,11.3,47.84626,-54.09684
2022-09-27 17:39:00+00:00,184.9015,15.13,11.3,47.84626,-54.09684
2022-09-27 17:49:00+00:00,179.6631,15.15,11.3,47.84626,-54.09684
2022-09-27 17:59:00+00:00,170.1915,15.16,11.3,47.84626,-54.09684
2022-09-27 18:09:00+00:00,164.1449,15.18,11.3,47.84626,-54.09684
2022-09-27 18:19:00+00:00,165.7898,15.18,11.3,47.84626,-54.09684
2022-09-27 18:29:00+00:00,170.1365,15.18,11.3,47.84626,-54.09684
2022-09-27 18:39:00+00:00,166.7182,15.19,11.3,47.84626,-54.09684
2022-09-27 18:49:00+00:00,165.6315,15.19,11.3,47.84626,-54.09684
2022-09-27 18:59:00+00:00,170.6048,15.2,11.3,47.84626,-54.09684
2022-09-27 19:09:00+00:00,169.9698,15.2,11.3,47.84626,-54.09684
2022-09-27 19:19:00+00:00,165.1632,15.2,11.3,47.84626,-54.09684
2022-09-27 19:29:00+00:00,171.3698,15.2,11.3,47.84626,-54.09684
2022-09-27 19:39:00+00:00,183.9015,15.2,11.3,47.84626,-54.09684
2022-09-27 19:49:00+00:00,190.9664,15.2,11.3,47.84626,-54.09684
2022-09-27 19:59:00+00:00,194.4281,15.2,11.3,47.84626,-54.09684
2022-09-27 20:09:00+00:00,198.6131,15.2,11.3,47.84626,-54.09684
2022-09-27 20:19:00+00:00,206.9515,15.2,11.3,47.84626,-54.09684
2022-09-27 20:29:00+00:00,211.9164,15.2,11.3,47.84626,-54.09684
2022-09-27 20:39:00+00:00,211.2348,15.19,11.3,47.84626,-54.09684
2022-09-27 20:49:00+00:00,221.2115,15.19,11.3,47.84626,-54.09684
2022-09-27 20:59:00+00:00,225.3415,15.17,11.3,47.84626,-54.09684
2022-09-27 21:09:00+00:00,227.0314,15.14,11.3,47.84626,-54.09684
2022-09-27 21:19:00+00:00,237.0497,15.1,11.3,47.84626,-54.09684
2022-09-27 21:29:00+00:00,246.9831,15.09,11.3,47.84626,-54.09684
2022-09-27 21:39:00+00:00,250.8214,15.0,11.3,47.84626,-54.09684
2022-09-27 21:49:00+00:00,257.4681,14.9,11.3,47.84626,-54.09684
2022-09-27 21:59:00+00:00,262.2931,14.9,11.3,47.84626,-54.09684
2022-09-27 22:09:00+00:00,264.5881,14.9,11.3,47.84626,-54.09684
2022-09-27 22:19:00+00:00,271.2014,14.9,11.3,47.84626,-54.09684
2022-09-27 22:29:00+00:00,282.9114,14.9,11.3,47.84626,-54.09684
2022-09-27 22:39:00+00:00,290.8914,14.9,11.3,47.84626,-54.09684
2022-09-27 22:49:00+00:00,295.2863,14.9,11.3,47.84626,-54.09684
2022-09-27 22:59:00+00:00,304.098,14.9,11.3,47.84626,-54.09684
2022-09-27 23:09:00+00:00,313.3763,14.9,11.3,47.84626,-54.09684
2022-09-27 23:19:00+00:00,324.2747,14.9,11.3,47.84626,-54.09684
2022-09-27 23:29:00+00:00,329.4446,14.9,11.3,47.84626,-54.09684
2022-09-27 23:39:00+00:00,339.213,14.8,11.3,47.84626,-54.09684
2022-09-27 23:49:00+00:00,349.708,14.81,11.3,47.84626,-54.09684
2022-09-27 23:59:00+00:00,350.57300000000015,14.89,11.3,47.84626,-54.09684
